Regional Weather Roundup
Issued by NWS

Home | Current Version | Previous Version | Graphics & Text | Print | Product List | Glossary On
Versions: 1 2 3 4 5 6 7 8 9 10 11 12 13 14 15 16 17 18 19 20 21 22 23 24 25 26 27 28 29 30 31 32 33 34 35 36 37 38 39 40 41 42 43 44 45 46 47 48 49 50
000
ASUS43 KDTX 201910
RWRMI
MICHIGAN HOURLY REGIONAL WEATHER ROUNDUP
NATIONAL WEATHER SERVICE DETROIT/PONTIAC MI
200 PM EST FRI JAN 20 2017

NOTE: "FAIR" INDICATES FEW OR NO CLOUDS BELOW 12,000 FEET WITH NO
SIGNIFICANT WEATHER AND/OR OBSTRUCTION TO VISIBILITY.

MIZ047>049-052>055-059>063-066>070-074>076-081>083-202000-
SOUTHEAST LOWER MICHIGAN

CITY           SKY/WX    TMP DP  RH WIND       PRES   REMARKS
ADRIAN         CLOUDY    39  39 100 SW5       29.66R FOG
ALMA           LGT SNOW  33  33  99 NE6       29.66F WCI  28
ANN ARBOR      FOG       38  38 100 CALM      29.65R VSB 1
BAD AXE        CLOUDY    35  35 100 E5        29.67F FOG     WCI  31
CARO           RAIN      35  34  96 E5        29.65F WCI  31
DETROIT CITY   FOG       37  37 100 E6        29.65S VSB 1   WCI  32
DETROIT        FOG       39  38  96 E3        29.65S VSB 1/2
FLINT          FOG       35  34  96 E8        29.64F VSB 1   WCI  29
GROSSE ILE     FOG       39  38  97 CALM      29.64R VSB 3/4
HILLSDALE      FOG       37  37 100 SW5       29.62S VSB 1   WCI  34
HOWELL         CLOUDY    37  36  96 E3        29.63S FOG

CITY           SKY/WX    TMP DP  RH WIND       PRES   REMARKS
JACKSON        CLOUDY    38  37  97 CALM      29.63S FOG
LAMBERTVILLE   FOG       42  40  94 W3        29.65R VSB 1/2
LANSING        CLOUDY    36  33  89 E5        29.64F FOG     WCI  32
LAPEER         CLOUDY    35  35 100 E3        29.65F FOG
MASON          CLOUDY    36  36  99 CALM      29.63F FOG
MONROE         FOG       39  39 100 CALM      29.64R VSB 1/2
MT. CLEMENS    FOG       37  37 100 E5        29.64R VSB 1   WCI  33
PONTIAC        FOG       36  34  92 E7        29.62F VSB 1   WCI  30
PORT HOPE        N/A     34  33  96 E7        29.67F WCI  28
PORT HURON     FOG       36  36 100 E5        29.65F VSB 1   WCI  32
TRI CITIES     LGT RAIN  34  34 100 NE8       29.67S VSB 1   WCI  27
MIDLAND        DRIZZLE   35  33  95 NE8       29.66F WCI  28
TROY           CLOUDY    37  36  94 E5        29.66S FOG     WCI  34
SAGINAW HB     MIX PCPN  34  32  93 NE6       29.66F WCI  29
$$
MIZ043>046-050>051-056>058-064>065-071>073-077>080-202000-
SOUTHWEST LOWER MICHIGAN

CITY           SKY/WX    TMP DP  RH WIND       PRES   REMARKS
BATTLE CREEK   CLOUDY    38  37  97 CALM      29.64S FOG
BENTON HARBOR  CLOUDY    41  39  93 S5        29.64F FOG
BIG RAPIDS     LGT SNOW  34  32  93 S5        29.65S WCI  30
COLDWATER      CLOUDY    40  40 100 SW7       29.64R FOG     WCI  35
FREMONT        DRIZZLE   35  35 100 E5        29.64F WCI  31
HOLLAND        CLOUDY    37  35  92 E8        29.64F WCI  31
GRAND RAPIDS   LGT RAIN  36  34  92 NE7       29.63F FOG     WCI  30
IONIA          CLOUDY    34  34  99 NE6       29.63F FOG     WCI  29
KALAMAZOO      CLOUDY    38  36  92 S7        29.65S FOG     WCI  33
LUDINGTON      DRIZZLE   40  34  80 E3        29.64F
MARSHALL       CLOUDY    38  37  99 CALM      29.62F FOG
MOUNT PLEASANT LGT RAIN  34  33  97 NE3       29.65F
MUSKEGON       DRIZZLE   38  36  92 E9        29.63F FOG     WCI  31
SOUTH HAVEN    CLOUDY    38  38  97 CALM      29.64R FOG
$$
MIZ016>042-202000-
NORTHERN LOWER MICHIGAN

CITY           SKY/WX    TMP DP  RH WIND       PRES   REMARKS
ALPENA         FOG       34  32  92 E6        29.71F VSB 1   WCI  29
BEAVER ISLAND  CLOUDY    32  32 100 E12       29.68F FOG     WCI  23
BELLAIRE       CLOUDY    38  33  83 CALM      29.67S
CADILLAC       CLOUDY    35  32  88 E6        29.64S WCI  30
CHARLEVOIX     CLOUDY    35  34  98 E5        29.70S WCI  31
FRANKFORT      CLOUDY    40  35  81 E3        29.66F
GAYLORD        CLOUDY    35  31  85 VRB5      29.65F WCI  31
GRAYLING       CLOUDY    36  32  87 E8        29.66F WCI  30
HARBOR SPRINGS CLOUDY    33  32  96 NE10      29.67F FOG     WCI  25
HOUGHTON LAKE  CLOUDY    36  32  85 E6        29.66S WCI  31
MANISTEE       CLOUDY    40  33  76 CALM      29.65F
OSCODA         CLOUDY    35  35  98 NE6       29.69F FOG     WCI  30
PELLSTON       CLOUDY    33  31  92 E6        29.69F WCI  28
ROGERS CITY    CLOUDY    34  33  95 SE5       29.72F FOG     WCI  30
TRAVERSE CITY  LGT RAIN  37  33  85 CALM      29.65F
$$
MIZ007>008-015-202000-
EASTERN UPPER MICHIGAN

CITY           SKY/WX    TMP DP  RH WIND       PRES   REMARKS
KINROSS        FOG       34  33  96 SE8       29.70F VSB 3/4 WCI  27
MACKINAC ISLAN FOG       33  33 100 SE6       29.70S VSB 1/4 WCI  27
NEWBERRY       FOG       32  32  99 E7        29.68F VSB 1/4 WCI  26
S. S. MARIE    CLOUDY    35  33  92 SE5       29.70F FOG     WCI  31
MUNISING         N/A     35  33  92 S5        29.66F WCI  31
$$
MIZ004>006-011>014-085-202000-
CENTRAL UPPER MICHIGAN

CITY           SKY/WX    TMP DP  RH WIND       PRES   REMARKS
MANISTIQUE     CLOUDY    33  32  97 E5        29.67F FOG     WCI  29
ESCANABA       LGT RAIN  35  34  96 S3        29.70S
SAWYER-GWINN   CLOUDY    32  32 100 SW5       29.66F FOG     WCI  27
$$
MIZ001>003-009>011-084-202000-
WESTERN UPPER MICHIGAN

CITY           SKY/WX    TMP DP  RH WIND       PRES   REMARKS
IRON MOUNTAIN  CLOUDY    34  31  88 SE6       29.66S FOG     WCI  29
HOUGHTON       CLOUDY    36  30  79 S3        29.64F
COPPER HARBOR    N/A     37  32  82 VRB6      29.64F WCI  32
IRONWOOD       LGT RAIN  38  33  82 E5        29.63F WCI  34
$$

ABBREVIATIONS USED IN REMARKS
   TC - TEMPERATURE IN CELSIUS
  WCI - WIND CHILL INDEX
   HX - HEAT INDEX
  VSB - VISIBILITY





USA.gov is the U.S. government's official web portal to all federal, state and local government web resources and services.